Time,TemperatureF,DewpointF,PressureIn,WindDirection,WindDirectionDegrees,WindSpeedMPH,WindSpeedGustMPH,Humidity,HourlyPrecipIn,Conditions,Clouds,dailyrainin,SoftwareType,DateUTC
2013-02-04 00:03:00,18.0,12.0,-100.00,WSW,240,6.0,8.0,75,0.00,,,-99.99,,2013-02-04 05:03:00,
2013-02-04 00:11:00,18.0,11.0,-100.00,WSW,250,6.0,9.0,75,0.00,,,-99.99,,2013-02-04 05:11:00,
2013-02-04 00:22:00,17.0,11.0,-100.00,WSW,240,7.0,9.0,75,0.00,,,-99.99,,2013-02-04 05:22:00,
2013-02-04 00:33:00,17.0,11.0,-100.00,WSW,250,9.0,12.0,75,0.00,,,-99.99,,2013-02-04 05:33:00,
2013-02-04 00:42:00,17.0,11.0,-100.00,WSW,245,9.0,13.0,76,0.00,,,-99.99,,2013-02-04 05:42:00,
2013-02-04 00:52:00,17.0,11.0,-100.00,WSW,245,8.0,13.0,76,0.00,,,-99.99,,2013-02-04 05:52:00,
2013-02-04 01:02:00,17.0,11.0,-100.00,WSW,250,7.0,12.0,76,0.00,,,-99.99,,2013-02-04 06:02:00,
2013-02-04 01:11:00,17.0,11.0,-100.00,WSW,245,9.0,16.0,76,0.00,,,-99.99,,2013-02-04 06:11:00,
2013-02-04 01:21:00,17.0,11.0,-100.00,SW,235,9.0,12.0,77,0.00,,,-99.99,,2013-02-04 06:21:00,
2013-02-04 01:32:00,17.0,11.0,-100.00,SW,235,8.0,12.0,77,0.00,,,-99.99,,2013-02-04 06:32:00,
2013-02-04 01:42:00,17.0,11.0,-100.00,WSW,240,6.0,11.0,78,0.00,,,-99.99,,2013-02-04 06:42:00,
2013-02-04 01:51:00,17.0,11.0,-100.00,SW,235,6.0,11.0,78,0.00,,,-99.99,,2013-02-04 06:51:00,
2013-02-04 02:02:00,17.0,11.0,-100.00,SW,230,7.0,9.0,78,0.00,,,-99.99,,2013-02-04 07:02:00,
2013-02-04 02:11:00,17.0,11.0,-100.00,SW,230,7.0,10.0,78,0.00,,,-99.99,,2013-02-04 07:11:00,
2013-02-04 02:21:00,16.0,11.0,-100.00,SW,230,6.0,9.0,78,0.00,,,-99.99,,2013-02-04 07:21:00,
2013-02-04 02:32:00,16.0,11.0,-100.00,WSW,240,6.0,9.0,78,0.00,,,-99.99,,2013-02-04 07:32:00,
2013-02-04 02:42:00,17.0,11.0,-100.00,WSW,245,6.0,9.0,78,0.00,,,-99.99,,2013-02-04 07:42:00,
2013-02-04 02:52:00,17.0,11.0,-100.00,WSW,240,6.0,10.0,78,0.00,,,-99.99,,2013-02-04 07:52:00,
2013-02-04 03:01:00,16.0,11.0,-100.00,WSW,240,6.0,9.0,79,0.00,,,-99.99,,2013-02-04 08:01:00,
2013-02-04 03:11:00,16.0,12.0,-100.00,SW,230,5.0,9.0,81,0.00,,,-99.99,,2013-02-04 08:11:00,
2013-02-04 03:21:00,16.0,12.0,-100.00,SW,235,6.0,8.0,82,0.00,,,-99.99,,2013-02-04 08:21:00,
2013-02-04 03:32:00,16.0,12.0,-100.00,SW,230,6.0,8.0,83,0.00,,,-99.99,,2013-02-04 08:32:00,
2013-02-04 03:42:00,16.0,12.0,-100.00,WSW,245,6.0,9.0,84,0.00,,,-99.99,,2013-02-04 08:42:00,
2013-02-04 03:52:00,16.0,13.0,-100.00,WSW,245,6.0,9.0,85,0.00,,,-99.99,,2013-02-04 08:52:00,
2013-02-04 04:02:00,16.0,13.0,-100.00,WSW,245,5.0,9.0,86,0.00,,,-99.99,,2013-02-04 09:02:00,
2013-02-04 04:11:00,16.0,13.0,-100.00,SW,235,4.0,7.0,87,0.00,,,-99.99,,2013-02-04 09:11:00,
2013-02-04 04:21:00,16.0,13.0,-100.00,SW,230,6.0,8.0,88,0.00,,,-99.99,,2013-02-04 09:21:00,
2013-02-04 04:32:00,17.0,14.0,-100.00,SW,230,6.0,8.0,89,0.00,,,-99.99,,2013-02-04 09:32:00,
2013-02-04 04:42:00,17.0,14.0,-100.00,SW,230,4.0,7.0,90,0.55,,,-99.99,,2013-02-04 09:42:00,
2013-02-04 04:51:00,17.0,15.0,-100.00,SSW,210,4.0,7.0,90,0.00,,,-99.99,,2013-02-04 09:51:00,
2013-02-04 05:01:00,17.0,15.0,-100.00,SSW,210,4.0,7.0,91,0.00,,,-99.99,,2013-02-04 10:01:00,
2013-02-04 05:11:00,17.0,15.0,-100.00,SW,220,6.0,9.0,91,0.00,,,-99.99,,2013-02-04 10:11:00,
2013-02-04 05:21:00,17.0,15.0,-100.00,SW,220,5.0,8.0,91,0.55,,,-99.99,,2013-02-04 10:21:00,
2013-02-04 05:32:00,17.0,15.0,-100.00,SW,215,6.0,7.0,92,0.00,,,-99.99,,2013-02-04 10:32:00,
2013-02-04 05:41:00,17.0,15.0,-100.00,South,185,6.0,7.0,93,0.00,,,-99.99,,2013-02-04 10:41:00,
2013-02-04 05:51:00,16.0,15.0,-100.00,South,175,4.0,7.0,94,0.00,,,-99.99,,2013-02-04 10:51:00,
2013-02-04 06:02:00,16.0,15.0,-100.00,South,175,6.0,7.0,95,0.00,,,-99.99,,2013-02-04 11:02:00,
2013-02-04 06:11:00,17.0,16.0,-100.00,South,180,6.0,9.0,96,0.00,,,-99.99,,2013-02-04 11:11:00,
2013-02-04 06:22:00,17.0,16.0,-100.00,South,185,6.0,8.0,96,0.00,,,-99.99,,2013-02-04 11:22:00,
2013-02-04 06:33:00,17.0,16.0,-100.00,South,180,6.0,8.0,96,0.00,,,-99.99,,2013-02-04 11:33:00,
2013-02-04 06:42:00,17.0,17.0,-100.00,South,180,5.0,7.0,97,0.00,,,-99.99,,2013-02-04 11:42:00,
2013-02-04 06:52:00,17.0,17.0,-100.00,South,175,5.0,8.0,97,0.00,,,-99.99,,2013-02-04 11:52:00,
2013-02-04 07:02:00,17.0,17.0,-100.00,South,175,6.0,9.0,97,0.00,,,-99.99,,2013-02-04 12:02:00,
2013-02-04 07:12:00,17.0,-99.9,-100.00,South,180,6.0,9.0,-999,0.00,,,-99.99,,2013-02-04 12:12:00,
2013-02-04 07:22:00,17.0,-99.9,-100.00,South,180,6.0,9.0,-999,0.00,,,-99.99,,2013-02-04 12:22:00,
2013-02-04 07:33:00,18.0,-99.9,-100.00,South,185,7.0,9.0,-999,0.00,,,-99.99,,2013-02-04 12:33:00,
2013-02-04 07:42:00,18.0,-99.9,-100.00,South,180,6.0,9.0,-999,0.00,,,-99.99,,2013-02-04 12:42:00,
2013-02-04 07:53:00,18.0,-99.9,-100.00,South,175,4.0,8.0,-999,0.00,,,-99.99,,2013-02-04 12:53:00,
2013-02-04 08:03:00,18.0,-99.9,-100.00,South,175,4.0,7.0,-999,0.00,,,-99.99,,2013-02-04 13:03:00,
2013-02-04 08:13:00,18.0,-99.9,-100.00,South,175,4.0,6.0,-999,0.00,,,-99.99,,2013-02-04 13:13:00,
2013-02-04 08:22:00,18.0,-99.9,-100.00,South,170,4.0,6.0,-999,0.00,,,-99.99,,2013-02-04 13:22:00,
2013-02-04 08:33:00,18.0,-99.9,-100.00,South,170,3.0,8.0,-999,0.55,,,-99.99,,2013-02-04 13:33:00,
2013-02-04 08:42:00,18.0,-99.9,-100.00,South,180,6.0,7.0,-999,0.55,,,-99.99,,2013-02-04 13:42:00,
2013-02-04 08:52:00,18.0,-99.9,-100.00,South,175,3.0,6.0,-999,0.55,,,-99.99,,2013-02-04 13:52:00,
2013-02-04 09:03:00,18.0,-99.9,-100.00,SSE,165,2.0,4.0,-999,0.55,,,-99.99,,2013-02-04 14:03:00,
2013-02-04 09:12:00,19.0,-99.9,-100.00,SSE,150,1.0,3.0,-999,1.10,,,-99.99,,2013-02-04 14:12:00,
2013-02-04 09:23:00,19.0,-99.9,-100.00,SSE,155,2.0,4.0,-999,1.10,,,-99.99,,2013-02-04 14:23:00,
2013-02-04 09:33:00,19.0,-99.9,-100.00,SE,135,2.0,3.0,-999,1.10,,,-99.99,,2013-02-04 14:33:00,
2013-02-04 09:42:00,19.0,-99.9,-100.00,SE,145,4.0,4.0,-999,2.83,,,-99.99,,2013-02-04 14:42:00,
2013-02-04 09:53:00,19.0,-99.9,-100.00,SE,145,4.0,4.0,-999,2.83,,,-99.99,,2013-02-04 14:53:00,
2013-02-04 10:04:00,20.0,-99.9,-100.00,South,170,2.0,4.0,-999,1.10,,,-99.99,,2013-02-04 15:04:00,
2013-02-04 10:13:00,20.0,-99.9,-100.00,SE,135,4.0,6.0,-999,2.24,,,-99.99,,2013-02-04 15:13:00,
2013-02-04 10:24:00,20.0,-99.9,-100.00,SE,140,3.0,5.0,-999,2.24,,,-99.99,,2013-02-04 15:24:00,
2013-02-04 10:33:00,20.0,-99.9,-100.00,ESE,115,4.0,6.0,-999,3.94,,,-99.99,,2013-02-04 15:33:00,
2013-02-04 10:43:00,21.0,20.0,-100.00,ESE,110,4.0,6.0,96,1.69,,,-99.99,,2013-02-04 15:43:00,
2013-02-04 10:52:00,21.0,20.0,-100.00,ESE,115,4.0,6.0,96,1.69,,,-99.99,,2013-02-04 15:52:00,
2013-02-04 11:03:00,21.0,20.0,-100.00,ESE,115,6.0,7.0,95,0.55,,,-99.99,,2013-02-04 16:03:00,
2013-02-04 11:11:00,21.0,20.0,-100.00,ESE,115,6.0,6.0,95,0.55,,,-99.99,,2013-02-04 16:11:00,
2013-02-04 11:22:00,21.0,20.0,-100.00,SE,130,4.0,6.0,94,1.69,,,-99.99,,2013-02-04 16:22:00,
2013-02-04 11:33:00,22.0,20.0,-100.00,ESE,115,4.0,7.0,94,1.69,,,-99.99,,2013-02-04 16:33:00,
2013-02-04 11:42:00,22.0,20.0,-100.00,ESE,105,4.0,6.0,92,2.24,,,-99.99,,2013-02-04 16:42:00,
2013-02-04 11:51:00,22.0,20.0,-100.00,ESE,105,4.0,6.0,92,2.83,,,-99.99,,2013-02-04 16:51:00,
2013-02-04 12:02:00,22.0,20.0,-100.00,East,95,6.0,7.0,92,0.55,,,-99.99,,2013-02-04 17:02:00,
2013-02-04 12:11:00,22.0,20.0,-100.00,East,100,6.0,7.0,93,0.55,,,-99.99,,2013-02-04 17:11:00,
2013-02-04 12:21:00,22.0,20.0,-100.00,ESE,105,7.0,9.0,92,0.55,,,-99.99,,2013-02-04 17:21:00,
2013-02-04 12:32:00,22.0,20.0,-100.00,ESE,115,6.0,9.0,93,1.10,,,-99.99,,2013-02-04 17:32:00,
2013-02-04 12:42:00,22.0,20.0,-100.00,East,100,7.0,9.0,93,0.55,,,-99.99,,2013-02-04 17:42:00,
2013-02-04 12:51:00,22.0,21.0,-100.00,ESE,110,7.0,9.0,92,0.00,,,-99.99,,2013-02-04 17:51:00,
2013-02-04 13:03:00,22.0,21.0,-100.00,East,100,7.0,9.0,93,0.55,,,-99.99,,2013-02-04 18:03:00,
2013-02-04 13:11:00,23.0,21.0,-100.00,ESE,115,6.0,9.0,92,0.00,,,-99.99,,2013-02-04 18:11:00,
2013-02-04 13:22:00,23.0,21.0,-100.00,ESE,105,8.0,9.0,93,0.55,,,-99.99,,2013-02-04 18:22:00,
2013-02-04 13:32:00,23.0,21.0,-100.00,East,95,7.0,10.0,92,0.00,,,-99.99,,2013-02-04 18:32:00,
2013-02-04 13:42:00,23.0,21.0,-100.00,ESE,115,6.0,9.0,92,0.00,,,-99.99,,2013-02-04 18:42:00,
2013-02-04 13:52:00,23.0,22.0,-100.00,East,100,6.0,7.0,93,0.00,,,-99.99,,2013-02-04 18:52:00,
2013-02-04 14:02:00,23.0,22.0,-100.00,East,95,6.0,9.0,93,0.00,,,-99.99,,2013-02-04 19:02:00,
2013-02-04 14:11:00,23.0,21.0,-100.00,ESE,115,6.0,8.0,92,0.00,,,-99.99,,2013-02-04 19:11:00,
2013-02-04 14:22:00,24.0,21.0,-100.00,ESE,110,5.0,7.0,91,0.00,,,-99.99,,2013-02-04 19:22:00,
2013-02-04 14:32:00,24.0,21.0,-100.00,ESE,120,4.0,7.0,89,0.00,,,-99.99,,2013-02-04 19:32:00,
2013-02-04 14:42:00,24.0,21.0,-100.00,SE,125,4.0,7.0,89,0.00,,,-99.99,,2013-02-04 19:42:00,
2013-02-04 14:52:00,24.0,21.0,-100.00,ESE,105,4.0,5.0,90,0.00,,,-99.99,,2013-02-04 19:52:00,
2013-02-04 15:02:00,24.0,21.0,-100.00,East,90,4.0,7.0,91,0.00,,,-99.99,,2013-02-04 20:02:00,
2013-02-04 15:12:00,23.0,22.0,-100.00,East,100,4.0,6.0,92,0.00,,,-99.99,,2013-02-04 20:12:00,
2013-02-04 15:22:00,24.0,21.0,-100.00,East,90,3.0,6.0,91,0.00,,,-99.99,,2013-02-04 20:22:00,
2013-02-04 15:32:00,24.0,21.0,-100.00,East,95,4.0,6.0,91,0.00,,,-99.99,,2013-02-04 20:32:00,
2013-02-04 15:42:00,23.0,22.0,-100.00,East,85,4.0,6.0,92,0.00,,,-99.99,,2013-02-04 20:42:00,
2013-02-04 15:52:00,23.0,22.0,-100.00,East,80,4.0,6.0,94,0.00,,,-99.99,,2013-02-04 20:52:00,
2013-02-04 16:03:00,23.0,22.0,-100.00,East,90,5.0,7.0,95,0.00,,,-99.99,,2013-02-04 21:03:00,
2013-02-04 16:11:00,23.0,23.0,-100.00,East,100,6.0,7.0,97,0.00,,,-99.99,,2013-02-04 21:11:00,
2013-02-04 16:23:00,23.0,-99.9,-100.00,East,90,6.0,8.0,-999,0.00,,,-99.99,,2013-02-04 21:23:00,
2013-02-04 16:32:00,23.0,-99.9,-100.00,East,85,4.0,6.0,-999,0.00,,,-99.99,,2013-02-04 21:32:00,
2013-02-04 16:43:00,23.0,-99.9,-100.00,East,90,6.0,6.0,-999,0.00,,,-99.99,,2013-02-04 21:43:00,
2013-02-04 16:52:00,23.0,-99.9,-100.00,East,85,3.0,6.0,-999,0.00,,,-99.99,,2013-02-04 21:52:00,
2013-02-04 17:03:00,23.0,-99.9,-100.00,ENE,70,4.0,6.0,-999,0.00,,,-99.99,,2013-02-04 22:03:00,
2013-02-04 17:12:00,23.0,-99.9,-100.00,NE,55,5.0,6.0,-999,0.00,,,-99.99,,2013-02-04 22:12:00,
2013-02-04 17:22:00,23.0,-99.9,-100.00,NE,55,5.0,7.0,-999,0.00,,,-99.99,,2013-02-04 22:22:00,
2013-02-04 17:33:00,22.0,-99.9,-100.00,ENE,65,5.0,7.0,-999,0.00,,,-99.99,,2013-02-04 22:33:00,
2013-02-04 17:42:00,22.0,-99.9,-100.00,East,80,4.0,7.0,-999,0.00,,,-99.99,,2013-02-04 22:42:00,
2013-02-04 17:52:00,22.0,-99.9,-100.00,ENE,65,4.0,7.0,-999,0.00,,,-99.99,,2013-02-04 22:52:00,
2013-02-04 18:02:00,22.0,-99.9,-100.00,ENE,60,4.0,6.0,-999,0.00,,,-99.99,,2013-02-04 23:02:00,
2013-02-04 18:11:00,22.0,-99.9,-100.00,ENE,75,4.0,6.0,-999,0.00,,,-99.99,,2013-02-04 23:11:00,
2013-02-04 18:22:00,22.0,-99.9,-100.00,East,80,4.0,6.0,-999,0.00,,,-99.99,,2013-02-04 23:22:00,
2013-02-04 18:32:00,22.0,-99.9,-100.00,East,80,4.0,5.0,-999,0.00,,,-99.99,,2013-02-04 23:32:00,
2013-02-04 18:42:00,22.0,-99.9,-100.00,East,85,5.0,7.0,-999,0.00,,,-99.99,,2013-02-04 23:42:00,
2013-02-04 18:53:00,22.0,-99.9,-100.00,ENE,65,4.0,6.0,-999,0.00,,,-99.99,,2013-02-04 23:53:00,
2013-02-04 19:02:00,22.0,-99.9,-100.00,NE,55,3.0,6.0,-999,0.00,,,-99.99,,2013-02-05 00:02:00,
2013-02-04 19:12:00,22.0,-99.9,-100.00,NE,55,4.0,6.0,-999,0.00,,,-99.99,,2013-02-05 00:12:00,
2013-02-04 19:22:00,22.0,-99.9,-100.00,NE,55,2.0,6.0,-999,0.00,,,-99.99,,2013-02-05 00:22:00,
2013-02-04 19:32:00,22.0,-99.9,-100.00,NE,45,3.0,4.0,-999,0.00,,,-99.99,,2013-02-05 00:32:00,
2013-02-04 19:42:00,22.0,-99.9,-100.00,NE,40,3.0,4.0,-999,0.00,,,-99.99,,2013-02-05 00:42:00,
2013-02-04 19:52:00,22.0,-99.9,-100.00,NE,35,2.0,6.0,-999,0.00,,,-99.99,,2013-02-05 00:52:00,
2013-02-04 20:02:00,22.0,-99.9,-100.00,North,10,2.0,4.0,-999,0.00,,,-99.99,,2013-02-05 01:02:00,
2013-02-04 20:12:00,23.0,-99.9,-100.00,North,0,2.0,5.0,-999,0.00,,,-99.99,,2013-02-05 01:12:00,
2013-02-04 20:22:00,22.0,-99.9,-100.00,North,0,4.0,6.0,-999,0.00,,,-99.99,,2013-02-05 01:22:00,
2013-02-04 20:33:00,22.0,-99.9,-100.00,North,10,3.0,6.0,-999,0.00,,,-99.99,,2013-02-05 01:33:00,
2013-02-04 20:42:00,22.0,-99.9,-100.00,North,10,4.0,6.0,-999,0.00,,,-99.99,,2013-02-05 01:42:00,
2013-02-04 20:52:00,22.0,-99.9,-100.00,North,10,3.0,5.0,-999,0.00,,,-99.99,,2013-02-05 01:52:00,
2013-02-04 21:02:00,22.0,-99.9,-100.00,North,10,2.0,4.0,-999,0.00,,,-99.99,,2013-02-05 02:02:00,
2013-02-04 21:12:00,22.0,-99.9,-100.00,North,0,3.0,4.0,-999,0.00,,,-99.99,,2013-02-05 02:12:00,
2013-02-04 21:22:00,22.0,-99.9,-100.00,North,5,4.0,6.0,-999,0.00,,,-99.99,,2013-02-05 02:22:00,
2013-02-04 21:32:00,22.0,-99.9,-100.00,North,10,4.0,6.0,-999,0.00,,,-99.99,,2013-02-05 02:32:00,
2013-02-04 21:42:00,22.0,-99.9,-100.00,North,5,4.0,6.0,-999,0.00,,,-99.99,,2013-02-05 02:42:00,
2013-02-04 21:52:00,22.0,-99.9,-100.00,North,10,3.0,5.0,-999,0.00,,,-99.99,,2013-02-05 02:52:00,
2013-02-04 22:02:00,22.0,21.0,-100.00,North,0,3.0,6.0,97,0.00,,,-99.99,,2013-02-05 03:02:00,
2013-02-04 22:12:00,22.0,-99.9,-100.00,North,5,4.0,5.0,-999,0.00,,,-99.99,,2013-02-05 03:12:00,
2013-02-04 22:22:00,22.0,-99.9,-100.00,North,5,3.0,6.0,-999,0.00,,,-99.99,,2013-02-05 03:22:00,
2013-02-04 22:32:00,21.0,21.0,-100.00,North,5,2.0,5.0,96,0.00,,,-99.99,,2013-02-05 03:32:00,
2013-02-04 22:42:00,21.0,20.0,-100.00,NNE,30,3.0,6.0,95,0.00,,,-99.99,,2013-02-05 03:42:00,
2013-02-04 22:51:00,21.0,20.0,-100.00,NNE,30,2.0,4.0,95,0.00,,,-99.99,,2013-02-05 03:51:00,
2013-02-04 23:01:00,21.0,20.0,-100.00,NE,35,1.0,3.0,95,0.00,,,-99.99,,2013-02-05 04:01:00,
2013-02-04 23:11:00,21.0,20.0,-100.00,NNE,20,0.0,1.0,94,0.00,,,-99.99,,2013-02-05 04:11:00,
2013-02-04 23:21:00,21.0,20.0,-100.00,North,0,1.0,1.0,94,0.00,,,-99.99,,2013-02-05 04:21:00,
2013-02-04 23:32:00,21.0,20.0,-100.00,NNW,335,2.0,2.0,95,0.00,,,-99.99,,2013-02-05 04:32:00,
2013-02-04 23:42:00,21.0,20.0,-100.00,NNW,335,3.0,4.0,96,0.00,,,-99.99,,2013-02-05 04:42:00,
2013-02-04 23:52:00,20.0,20.0,-100.00,NNW,345,6.0,8.0,97,0.00,,,-99.99,,2013-02-05 04:52:00,